Time,TemperatureF,DewpointF,PressureIn,WindDirection,WindDirectionDegrees,WindSpeedMPH,WindSpeedGustMPH,Humidity,HourlyPrecipIn,Conditions,Clouds,dailyrainin,SoftwareType,DateUTC
2013-05-04 00:00:00,49.5,48.4,30.01,ESE,103,2.0,2.0,96,0.00,,,0.00,Wunderground v.1.15,2013-05-04 05:00:00,
2013-05-04 00:05:00,49.4,48.3,30.01,ESE,115,2.0,2.0,96,0.00,,,0.00,Wunderground v.1.15,2013-05-04 05:05:00,
2013-05-04 00:15:00,49.3,48.2,30.01,East,80,2.0,7.0,96,0.00,,,0.00,Wunderground v.1.15,2013-05-04 05:15:00,
2013-05-04 00:20:00,49.3,48.2,30.01,ESE,110,2.0,2.0,96,0.00,,,0.00,Wunderground v.1.15,2013-05-04 05:20:00,
2013-05-04 00:25:00,49.3,48.2,30.01,ESE,102,2.0,2.0,96,0.00,,,0.00,Wunderground v.1.15,2013-05-04 05:25:00,
2013-05-04 00:30:00,49.3,48.2,30.01,ESE,107,1.0,5.0,96,0.00,,,0.00,Wunderground v.1.15,2013-05-04 05:30:00,
2013-05-04 00:40:00,49.2,48.1,30.01,SSE,153,2.0,5.0,96,0.00,,,0.00,Wunderground v.1.15,2013-05-04 05:40:00,
2013-05-04 00:45:00,49.2,47.8,30.01,ESE,113,2.0,6.0,95,0.00,,,0.00,Wunderground v.1.15,2013-05-04 05:45:00,
2013-05-04 00:50:00,49.2,47.8,30.01,ENE,71,2.0,5.0,95,0.00,,,0.00,Wunderground v.1.15,2013-05-04 05:50:00,
2013-05-04 00:55:00,49.2,47.8,30.01,ESE,110,2.0,5.0,95,0.00,,,0.00,Wunderground v.1.15,2013-05-04 05:55:00,
2013-05-04 01:00:00,49.2,47.8,30.02,SSE,164,2.0,2.0,95,0.00,,,0.00,Wunderground v.1.15,2013-05-04 06:00:00,
2013-05-04 01:05:00,49.3,47.9,30.04,SE,136,4.0,4.0,95,0.00,,,0.00,Wunderground v.1.15,2013-05-04 06:05:00,
2013-05-04 01:15:00,49.7,48.3,30.04,SE,133,3.0,5.0,95,0.00,,,0.00,Wunderground v.1.15,2013-05-04 06:15:00,
2013-05-04 01:20:00,49.9,48.5,30.03,SSE,155,2.0,2.0,95,0.00,,,0.00,Wunderground v.1.15,2013-05-04 06:20:00,
2013-05-04 01:25:00,50.0,48.6,30.03,ESE,113,1.0,2.0,95,0.00,,,0.00,Wunderground v.1.15,2013-05-04 06:25:00,
2013-05-04 01:30:00,50.1,48.7,30.03,ESE,114,0.0,0.0,95,0.00,,,0.01,Wunderground v.1.15,2013-05-04 06:30:00,
2013-05-04 01:35:00,50.2,48.8,30.03,ESE,114,0.0,0.0,95,0.00,,,0.01,Wunderground v.1.15,2013-05-04 06:35:00,
2013-05-04 01:40:00,50.0,48.6,30.03,East,94,0.0,2.0,95,0.00,,,0.01,Wunderground v.1.15,2013-05-04 06:40:00,
2013-05-04 01:45:00,49.9,48.5,30.02,East,98,0.0,2.0,95,0.00,,,0.01,Wunderground v.1.15,2013-05-04 06:45:00,
2013-05-04 01:55:00,49.7,48.3,30.02,East,99,0.0,1.0,95,0.00,,,0.01,Wunderground v.1.15,2013-05-04 06:55:00,
2013-05-04 02:00:00,49.7,48.3,30.02,East,92,0.0,0.0,95,0.00,,,0.01,Wunderground v.1.15,2013-05-04 07:00:00,
2013-05-04 02:05:00,49.7,48.3,30.02,East,92,0.0,0.0,95,0.00,,,0.01,Wunderground v.1.15,2013-05-04 07:05:00,
2013-05-04 02:15:00,49.8,48.4,30.02,ESE,113,0.0,4.0,95,0.00,,,0.01,Wunderground v.1.15,2013-05-04 07:15:00,
2013-05-04 02:20:00,49.9,48.5,30.02,ESE,119,0.0,0.0,95,0.00,,,0.01,Wunderground v.1.15,2013-05-04 07:20:00,
2013-05-04 02:30:00,50.0,48.6,30.02,NE,40,0.0,0.0,95,0.00,,,0.01,Wunderground v.1.15,2013-05-04 07:30:00,
2013-05-04 02:35:00,50.1,48.7,30.02,East,90,1.0,1.0,95,0.00,,,0.01,Wunderground v.1.15,2013-05-04 07:35:00,
2013-05-04 02:40:00,50.2,48.8,30.01,ESE,121,1.0,1.0,95,0.00,,,0.01,Wunderground v.1.15,2013-05-04 07:40:00,
2013-05-04 02:45:00,50.2,48.8,30.01,North,355,1.0,3.0,95,0.00,,,0.01,Wunderground v.1.15,2013-05-04 07:45:00,
2013-05-04 02:50:00,50.3,48.9,30.01,ENE,78,1.0,1.0,95,0.00,,,0.01,Wunderground v.1.15,2013-05-04 07:50:00,
2013-05-04 03:00:00,50.3,48.9,30.01,ESE,114,0.0,0.0,95,0.00,,,0.01,Wunderground v.1.15,2013-05-04 08:00:00,
2013-05-04 03:05:00,50.4,49.0,30.01,ESE,118,0.0,1.0,95,0.00,,,0.01,Wunderground v.1.15,2013-05-04 08:05:00,
2013-05-04 03:15:00,50.6,49.2,30.01,ESE,113,0.0,0.0,95,0.00,,,0.01,Wunderground v.1.15,2013-05-04 08:15:00,
2013-05-04 03:25:00,50.8,49.4,30.01,ESE,105,1.0,1.0,95,0.00,,,0.01,Wunderground v.1.15,2013-05-04 08:25:00,
2013-05-04 03:35:00,50.9,49.5,30.01,East,84,0.0,0.0,95,0.00,,,0.01,Wunderground v.1.15,2013-05-04 08:35:00,
2013-05-04 03:40:00,51.0,49.6,30.02,East,101,1.0,2.0,95,0.00,,,0.01,Wunderground v.1.15,2013-05-04 08:40:00,
2013-05-04 03:45:00,51.0,49.6,30.02,East,88,1.0,2.0,95,0.00,,,0.01,Wunderground v.1.15,2013-05-04 08:45:00,
2013-05-04 03:50:00,51.1,49.7,30.02,ESE,109,0.0,1.0,95,0.00,,,0.01,Wunderground v.1.15,2013-05-04 08:50:00,
2013-05-04 04:00:00,51.0,49.6,30.02,East,95,0.0,5.0,95,0.00,,,0.01,Wunderground v.1.15,2013-05-04 09:00:00,
2013-05-04 04:05:00,51.0,49.6,30.02,ESE,114,1.0,5.0,95,0.00,,,0.01,Wunderground v.1.15,2013-05-04 09:05:00,
2013-05-04 04:15:00,50.8,49.1,30.02,East,94,0.0,2.0,94,0.00,,,0.01,Wunderground v.1.15,2013-05-04 09:15:00,
2013-05-04 04:20:00,50.7,49.3,30.02,ESE,105,1.0,1.0,95,0.00,,,0.01,Wunderground v.1.15,2013-05-04 09:20:00,
2013-05-04 04:25:00,50.7,49.3,30.02,East,99,1.0,1.0,95,0.00,,,0.01,Wunderground v.1.15,2013-05-04 09:25:00,
2013-05-04 04:35:00,50.6,49.2,30.01,East,99,0.0,0.0,95,0.00,,,0.01,Wunderground v.1.15,2013-05-04 09:35:00,
2013-05-04 04:40:00,50.6,49.2,30.01,East,99,0.0,0.0,95,0.00,,,0.01,Wunderground v.1.15,2013-05-04 09:40:00,
2013-05-04 04:45:00,50.6,49.2,30.01,East,99,0.0,0.0,95,0.00,,,0.01,Wunderground v.1.15,2013-05-04 09:45:00,
2013-05-04 04:50:00,50.5,49.1,30.01,WNW,298,0.0,0.0,95,0.00,,,0.01,Wunderground v.1.15,2013-05-04 09:50:00,
2013-05-04 04:55:00,50.4,48.7,30.01,WNW,300,0.0,0.0,94,0.00,,,0.01,Wunderground v.1.15,2013-05-04 09:55:00,
2013-05-04 05:00:00,50.4,49.0,30.01,East,87,0.0,0.0,95,0.00,,,0.01,Wunderground v.1.15,2013-05-04 10:00:00,
2013-05-04 05:05:00,50.4,49.0,30.01,East,89,0.0,0.0,95,0.00,,,0.01,Wunderground v.1.15,2013-05-04 10:05:00,
2013-05-04 05:15:00,50.5,49.1,30.01,East,89,0.0,0.0,95,0.00,,,0.01,Wunderground v.1.15,2013-05-04 10:15:00,
2013-05-04 05:20:00,50.5,49.1,30.01,East,88,0.0,0.0,95,0.00,,,0.01,Wunderground v.1.15,2013-05-04 10:20:00,
2013-05-04 05:25:00,50.4,49.0,30.01,East,88,0.0,0.0,95,0.00,,,0.01,Wunderground v.1.15,2013-05-04 10:25:00,
2013-05-04 05:30:00,50.5,49.1,30.01,East,89,0.0,0.0,95,0.00,,,0.01,Wunderground v.1.15,2013-05-04 10:30:00,
2013-05-04 05:40:00,50.4,49.0,30.01,East,89,0.0,0.0,95,0.00,,,0.01,Wunderground v.1.15,2013-05-04 10:40:00,
2013-05-04 05:45:00,50.4,49.0,30.01,East,88,0.0,0.0,95,0.00,,,0.01,Wunderground v.1.15,2013-05-04 10:45:00,
2013-05-04 05:55:00,50.3,48.9,30.01,East,88,0.0,0.0,95,0.00,,,0.01,Wunderground v.1.15,2013-05-04 10:55:00,
2013-05-04 06:00:00,50.1,48.7,30.01,East,89,0.0,0.0,95,0.00,,,0.01,Wunderground v.1.15,2013-05-04 11:00:00,
2013-05-04 06:05:00,49.9,48.5,30.01,East,89,0.0,0.0,95,0.00,,,0.01,Wunderground v.1.15,2013-05-04 11:05:00,
2013-05-04 06:15:00,49.8,48.4,30.02,East,88,0.0,1.0,95,0.00,,,0.01,Wunderground v.1.15,2013-05-04 11:15:00,
2013-05-04 06:20:00,50.0,48.6,30.02,ESE,109,0.0,0.0,95,0.00,,,0.01,Wunderground v.1.15,2013-05-04 11:20:00,
2013-05-04 06:25:00,50.1,48.7,30.02,East,101,0.0,0.0,95,0.00,,,0.01,Wunderground v.1.15,2013-05-04 11:25:00,
2013-05-04 06:30:00,50.1,48.7,30.02,ENE,66,1.0,1.0,95,0.00,,,0.01,Wunderground v.1.15,2013-05-04 11:30:00,
2013-05-04 06:35:00,50.2,48.8,30.02,NE,36,1.0,1.0,95,0.00,,,0.01,Wunderground v.1.15,2013-05-04 11:35:00,
2013-05-04 06:40:00,50.2,48.8,30.02,ENE,77,0.0,3.0,95,0.00,,,0.01,Wunderground v.1.15,2013-05-04 11:40:00,
2013-05-04 06:50:00,50.5,49.1,30.02,East,87,0.0,0.0,95,0.00,,,0.01,Wunderground v.1.15,2013-05-04 11:50:00,
2013-05-04 07:00:00,50.9,49.5,30.02,East,84,0.0,0.0,95,0.00,,,0.01,Wunderground v.1.15,2013-05-04 12:00:00,
2013-05-04 07:05:00,51.1,49.7,30.03,ENE,78,0.0,0.0,95,0.00,,,0.01,Wunderground v.1.15,2013-05-04 12:05:00,
2013-05-04 07:15:00,51.4,50.0,30.03,East,98,0.0,2.0,95,0.00,,,0.01,Wunderground v.1.15,2013-05-04 12:15:00,
2013-05-04 07:25:00,51.7,50.0,30.03,ENE,74,0.0,0.0,94,0.00,,,0.01,Wunderground v.1.15,2013-05-04 12:25:00,
2013-05-04 07:30:00,51.9,50.2,30.03,NE,46,0.0,0.0,94,0.00,,,0.01,Wunderground v.1.15,2013-05-04 12:30:00,
2013-05-04 07:35:00,52.2,50.5,30.03,East,95,0.0,0.0,94,0.00,,,0.01,Wunderground v.1.15,2013-05-04 12:35:00,
2013-05-04 07:40:00,52.5,50.8,30.03,ESE,116,1.0,1.0,94,0.00,,,0.01,Wunderground v.1.15,2013-05-04 12:40:00,
2013-05-04 07:50:00,52.9,50.9,30.04,ESE,118,1.0,1.0,93,0.00,,,0.01,Wunderground v.1.15,2013-05-04 12:50:00,
2013-05-04 07:55:00,53.0,51.0,30.04,NE,34,1.0,8.0,93,0.00,,,0.01,Wunderground v.1.15,2013-05-04 12:55:00,
2013-05-04 08:00:00,53.0,50.7,30.04,SE,133,1.0,1.0,92,0.00,,,0.01,Wunderground v.1.15,2013-05-04 13:00:00,
2013-05-04 08:05:00,53.1,51.1,30.05,East,82,1.0,1.0,93,0.00,,,0.01,Wunderground v.1.15,2013-05-04 13:05:00,
2013-05-04 08:15:00,53.8,51.8,30.05,ESE,109,1.0,1.0,93,0.00,,,0.01,Wunderground v.1.15,2013-05-04 13:15:00,
2013-05-04 08:20:00,54.1,51.8,30.05,East,96,0.0,2.0,92,0.00,,,0.01,Wunderground v.1.15,2013-05-04 13:20:00,
2013-05-04 08:25:00,54.2,51.9,30.05,East,90,1.0,2.0,92,0.00,,,0.01,Wunderground v.1.15,2013-05-04 13:25:00,
2013-05-04 08:30:00,54.5,52.2,30.05,East,95,1.0,1.0,92,0.00,,,0.01,Wunderground v.1.15,2013-05-04 13:30:00,
2013-05-04 08:35:00,54.6,52.0,30.05,East,100,0.0,1.0,91,0.00,,,0.01,Wunderground v.1.15,2013-05-04 13:35:00,
2013-05-04 08:40:00,54.7,52.1,30.05,East,98,0.0,0.0,91,0.00,,,0.01,Wunderground v.1.15,2013-05-04 13:40:00,
2013-05-04 08:50:00,54.8,52.2,30.06,ESE,104,1.0,1.0,91,0.00,,,0.01,Wunderground v.1.15,2013-05-04 13:50:00,
2013-05-04 08:55:00,54.9,52.3,30.06,ESE,112,1.0,1.0,91,0.00,,,0.01,Wunderground v.1.15,2013-05-04 13:55:00,
2013-05-04 09:00:00,55.1,52.5,30.06,SSE,148,1.0,2.0,91,0.00,,,0.01,Wunderground v.1.15,2013-05-04 14:00:00,
2013-05-04 09:05:00,55.6,53.0,30.06,East,93,1.0,2.0,91,0.00,,,0.01,Wunderground v.1.15,2013-05-04 14:05:00,
2013-05-04 09:15:00,57.8,54.9,30.06,ESE,113,1.0,1.0,90,0.00,,,0.01,Wunderground v.1.15,2013-05-04 14:15:00,
2013-05-04 09:20:00,58.4,54.9,30.06,ENE,59,1.0,3.0,88,0.00,,,0.01,Wunderground v.1.15,2013-05-04 14:20:00,
2013-05-04 09:25:00,58.7,54.8,30.06,ESE,115,2.0,3.0,87,0.00,,,0.01,Wunderground v.1.15,2013-05-04 14:25:00,
2013-05-04 09:35:00,59.0,54.5,30.06,ENE,78,2.0,5.0,85,0.00,,,0.01,Wunderground v.1.15,2013-05-04 14:35:00,
2013-05-04 09:40:00,59.6,55.1,30.06,East,98,3.0,3.0,85,0.00,,,0.01,Wunderground v.1.15,2013-05-04 14:40:00,
2013-05-04 09:45:00,60.0,55.2,30.06,East,100,3.0,3.0,84,0.00,,,0.01,Wunderground v.1.15,2013-05-04 14:45:00,
2013-05-04 09:50:00,60.4,56.2,30.06,SE,125,2.0,2.0,86,0.00,,,0.01,Wunderground v.1.15,2013-05-04 14:50:00,
2013-05-04 10:00:00,61.5,56.6,30.06,SE,130,1.0,7.0,84,0.00,,,0.01,Wunderground v.1.15,2013-05-04 15:00:00,
2013-05-04 10:05:00,61.6,56.0,30.07,SE,144,1.0,7.0,82,0.00,,,0.01,Wunderground v.1.15,2013-05-04 15:05:00,
2013-05-04 10:15:00,61.4,55.5,30.07,NE,55,2.0,6.0,81,0.00,,,0.01,Wunderground v.1.15,2013-05-04 15:15:00,
2013-05-04 10:20:00,61.4,55.9,30.07,ESE,103,1.0,1.0,82,0.00,,,0.01,Wunderground v.1.15,2013-05-04 15:20:00,
2013-05-04 10:30:00,61.4,55.2,30.07,East,98,1.0,1.0,80,0.00,,,0.01,Wunderground v.1.15,2013-05-04 15:30:00,
2013-05-04 10:35:00,61.5,55.6,30.07,SE,126,2.0,2.0,81,0.00,,,0.01,Wunderground v.1.15,2013-05-04 15:35:00,
2013-05-04 10:40:00,61.8,55.6,30.07,SSE,147,3.0,3.0,80,0.00,,,0.01,Wunderground v.1.15,2013-05-04 15:40:00,
2013-05-04 10:50:00,62.9,55.9,30.07,SE,130,2.0,2.0,78,0.00,,,0.01,Wunderground v.1.15,2013-05-04 15:50:00,
2013-05-04 11:00:00,63.4,55.3,30.06,East,94,2.0,2.0,75,0.00,,,0.01,Wunderground v.1.15,2013-05-04 16:00:00,
2013-05-04 11:05:00,63.8,56.1,30.07,SE,140,2.0,2.0,76,0.00,,,0.01,Wunderground v.1.15,2013-05-04 16:05:00,
2013-05-04 11:15:00,64.2,56.1,30.06,SE,131,2.0,2.0,75,0.00,,,0.01,Wunderground v.1.15,2013-05-04 16:15:00,
2013-05-04 11:20:00,64.5,55.7,30.06,SSE,155,1.0,1.0,73,0.00,,,0.01,Wunderground v.1.15,2013-05-04 16:20:00,
2013-05-04 11:30:00,64.3,55.1,30.07,South,177,1.0,4.0,72,0.00,,,0.01,Wunderground v.1.15,2013-05-04 16:30:00,
2013-05-04 11:35:00,63.9,54.7,30.07,ESE,111,2.0,4.0,72,0.00,,,0.01,Wunderground v.1.15,2013-05-04 16:35:00,
2013-05-04 11:40:00,63.7,54.5,30.07,SE,137,1.0,1.0,72,0.00,,,0.01,Wunderground v.1.15,2013-05-04 16:40:00,
2013-05-04 11:45:00,63.7,54.5,30.07,ESE,117,1.0,6.0,72,0.00,,,0.01,Wunderground v.1.15,2013-05-04 16:45:00,
2013-05-04 11:55:00,64.3,55.5,30.06,ENE,57,1.0,1.0,73,0.00,,,0.01,Wunderground v.1.15,2013-05-04 16:55:00,
2013-05-04 12:00:00,64.3,55.1,30.07,ESE,109,1.0,1.0,72,0.00,,,0.01,Wunderground v.1.15,2013-05-04 17:00:00,
2013-05-04 12:05:00,64.1,54.9,30.07,East,81,2.0,2.0,72,0.00,,,0.01,Wunderground v.1.15,2013-05-04 17:05:00,
2013-05-04 12:15:00,64.7,56.2,30.07,NNW,330,1.0,3.0,74,0.00,,,0.01,Wunderground v.1.15,2013-05-04 17:15:00,
2013-05-04 12:20:00,65.1,55.8,30.06,East,86,1.0,1.0,72,0.00,,,0.01,Wunderground v.1.15,2013-05-04 17:20:00,
2013-05-04 12:25:00,65.2,55.6,30.06,ESE,122,2.0,4.0,71,0.00,,,0.01,Wunderground v.1.15,2013-05-04 17:25:00,
2013-05-04 12:30:00,65.2,55.6,30.06,NE,42,1.0,2.0,71,0.00,,,0.01,Wunderground v.1.15,2013-05-04 17:30:00,
2013-05-04 12:40:00,65.7,56.4,30.05,NE,53,1.0,1.0,72,0.00,,,0.01,Wunderground v.1.15,2013-05-04 17:40:00,
2013-05-04 12:45:00,66.3,56.2,30.05,NE,42,1.0,1.0,70,0.00,,,0.01,Wunderground v.1.15,2013-05-04 17:45:00,
2013-05-04 12:50:00,67.1,56.6,30.05,ESE,105,2.0,6.0,69,0.00,,,0.01,Wunderground v.1.15,2013-05-04 17:50:00,
2013-05-04 12:55:00,66.8,56.7,30.05,ESE,120,3.0,6.0,70,0.00,,,0.01,Wunderground v.1.15,2013-05-04 17:55:00,
2013-05-04 13:05:00,67.0,56.9,30.05,ESE,103,1.0,1.0,70,0.00,,,0.01,Wunderground v.1.15,2013-05-04 18:05:00,
2013-05-04 13:15:00,67.7,56.8,30.05,SE,124,1.0,6.0,68,0.00,,,0.01,Wunderground v.1.15,2013-05-04 18:15:00,
2013-05-04 13:25:00,67.6,57.5,30.04,East,92,2.0,2.0,70,0.00,,,0.01,Wunderground v.1.15,2013-05-04 18:25:00,
2013-05-04 13:35:00,68.3,57.7,30.04,North,5,0.0,3.0,69,0.00,,,0.01,Wunderground v.1.15,2013-05-04 18:35:00,
2013-05-04 13:40:00,68.1,57.1,30.04,ENE,76,2.0,2.0,68,0.00,,,0.01,Wunderground v.1.15,2013-05-04 18:40:00,
2013-05-04 13:45:00,68.2,56.8,30.04,NNE,25,2.0,2.0,67,0.00,,,0.01,Wunderground v.1.15,2013-05-04 18:45:00,
2013-05-04 13:50:00,68.4,57.0,30.04,East,79,1.0,1.0,67,0.00,,,0.01,Wunderground v.1.15,2013-05-04 18:50:00,
2013-05-04 14:00:00,68.5,56.3,30.03,ESE,115,1.0,4.0,65,0.00,,,0.01,Wunderground v.1.15,2013-05-04 19:00:00,
2013-05-04 14:05:00,68.5,56.3,30.03,ESE,116,1.0,4.0,65,0.00,,,0.01,Wunderground v.1.15,2013-05-04 19:05:00,
2013-05-04 14:15:00,69.9,55.8,30.03,East,91,2.0,3.0,61,0.00,,,0.01,Wunderground v.1.15,2013-05-04 19:15:00,
2013-05-04 14:20:00,69.9,55.8,30.03,SE,140,2.0,2.0,61,0.00,,,0.01,Wunderground v.1.15,2013-05-04 19:20:00,
2013-05-04 14:25:00,69.8,55.3,30.03,ENE,60,2.0,2.0,60,0.00,,,0.01,Wunderground v.1.15,2013-05-04 19:25:00,
2013-05-04 14:35:00,70.2,56.1,30.02,SE,129,2.0,4.0,61,0.00,,,0.01,Wunderground v.1.15,2013-05-04 19:35:00,
2013-05-04 14:45:00,70.1,56.5,30.02,ENE,63,2.0,4.0,62,0.00,,,0.01,Wunderground v.1.15,2013-05-04 19:45:00,
2013-05-04 14:50:00,70.2,56.6,30.02,SSE,149,2.0,2.0,62,0.00,,,0.01,Wunderground v.1.15,2013-05-04 19:50:00,
2013-05-04 14:55:00,70.1,56.5,30.02,East,88,2.0,2.0,62,0.00,,,0.01,Wunderground v.1.15,2013-05-04 19:55:00,
2013-05-04 15:00:00,70.3,56.7,30.02,SE,142,2.0,2.0,62,0.00,,,0.01,Wunderground v.1.15,2013-05-04 20:00:00,
2013-05-04 15:05:00,70.8,58.4,30.02,NE,48,1.0,4.0,65,0.00,,,0.01,Wunderground v.1.15,2013-05-04 20:05:00,
2013-05-04 15:15:00,69.7,57.0,30.02,East,89,4.0,6.0,64,0.00,,,0.01,Wunderground v.1.15,2013-05-04 20:15:00,
2013-05-04 15:20:00,69.5,57.6,30.02,East,84,4.0,4.0,66,0.00,,,0.01,Wunderground v.1.15,2013-05-04 20:20:00,
2013-05-04 15:25:00,69.7,57.0,30.02,East,98,3.0,4.0,64,0.00,,,0.01,Wunderground v.1.15,2013-05-04 20:25:00,
2013-05-04 15:35:00,69.6,56.4,30.02,East,98,2.0,2.0,63,0.00,,,0.01,Wunderground v.1.15,2013-05-04 20:35:00,
2013-05-04 15:45:00,69.2,56.9,30.01,SSE,148,3.0,3.0,65,0.00,,,0.01,Wunderground v.1.15,2013-05-04 20:45:00,
2013-05-04 15:50:00,69.6,56.9,30.01,ESE,117,3.0,3.0,64,0.00,,,0.01,Wunderground v.1.15,2013-05-04 20:50:00,
2013-05-04 16:00:00,69.8,57.9,30.01,ESE,111,4.0,4.0,66,0.00,,,0.01,Wunderground v.1.15,2013-05-04 21:00:00,
2013-05-04 16:05:00,70.2,57.9,30.01,NE,37,2.0,4.0,65,0.00,,,0.01,Wunderground v.1.15,2013-05-04 21:05:00,
2013-05-04 16:15:00,70.5,56.9,30.01,East,81,2.0,2.0,62,0.00,,,0.01,Wunderground v.1.15,2013-05-04 21:15:00,
2013-05-04 16:20:00,70.0,57.3,30.01,North,355,3.0,6.0,64,0.00,,,0.01,Wunderground v.1.15,2013-05-04 21:20:00,
2013-05-04 16:25:00,69.5,56.8,30.01,ENE,67,4.0,6.0,64,0.00,,,0.01,Wunderground v.1.15,2013-05-04 21:25:00,
2013-05-04 16:30:00,69.1,56.4,30.01,ESE,107,3.0,3.0,64,0.00,,,0.01,Wunderground v.1.15,2013-05-04 21:30:00,
2013-05-04 16:35:00,68.9,56.2,30.01,ENE,68,2.0,3.0,64,0.00,,,0.01,Wunderground v.1.15,2013-05-04 21:35:00,
2013-05-04 16:45:00,68.8,56.1,30.01,ESE,111,3.0,6.0,64,0.00,,,0.01,Wunderground v.1.15,2013-05-04 21:45:00,
2013-05-04 16:50:00,68.4,56.2,30.01,ESE,108,2.0,2.0,65,0.00,,,0.01,Wunderground v.1.15,2013-05-04 21:50:00,
2013-05-04 16:55:00,68.5,56.7,30.01,East,88,1.0,2.0,66,0.00,,,0.01,Wunderground v.1.15,2013-05-04 21:55:00,
2013-05-04 17:00:00,68.5,56.3,30.01,ESE,113,1.0,2.0,65,0.00,,,0.01,Wunderground v.1.15,2013-05-04 22:00:00,
2013-05-04 17:05:00,68.3,55.6,30.01,SE,140,2.0,2.0,64,0.00,,,0.01,Wunderground v.1.15,2013-05-04 22:05:00,
2013-05-04 17:15:00,68.4,54.9,30.01,SSW,192,2.0,2.0,62,0.00,,,0.01,Wunderground v.1.15,2013-05-04 22:15:00,
2013-05-04 17:20:00,68.5,55.4,30.01,NW,322,2.0,2.0,63,0.00,,,0.01,Wunderground v.1.15,2013-05-04 22:20:00,
2013-05-04 17:25:00,68.6,55.1,30.01,North,5,2.0,2.0,62,0.00,,,0.01,Wunderground v.1.15,2013-05-04 22:25:00,
2013-05-04 17:30:00,68.7,55.2,30.01,ENE,78,2.0,2.0,62,0.00,,,0.01,Wunderground v.1.15,2013-05-04 22:30:00,
2013-05-04 17:35:00,68.6,55.1,30.01,East,99,1.0,2.0,62,0.00,,,0.01,Wunderground v.1.15,2013-05-04 22:35:00,
2013-05-04 17:45:00,68.4,55.7,30.01,ESE,117,1.0,1.0,64,0.00,,,0.01,Wunderground v.1.15,2013-05-04 22:45:00,
2013-05-04 17:50:00,68.3,55.2,30.01,East,82,1.0,1.0,63,0.00,,,0.01,Wunderground v.1.15,2013-05-04 22:50:00,
2013-05-04 17:55:00,68.3,55.2,30.01,East,101,1.0,1.0,63,0.00,,,0.01,Wunderground v.1.15,2013-05-04 22:55:00,
2013-05-04 18:00:00,68.2,54.7,30.02,East,98,1.0,1.0,62,0.00,,,0.01,Wunderground v.1.15,2013-05-04 23:00:00,
2013-05-04 18:05:00,67.9,54.0,30.02,ESE,118,2.0,4.0,61,0.00,,,0.01,Wunderground v.1.15,2013-05-04 23:05:00,
2013-05-04 18:15:00,67.4,53.5,30.02,ESE,119,1.0,2.0,61,0.00,,,0.01,Wunderground v.1.15,2013-05-04 23:15:00,
2013-05-04 18:20:00,67.2,53.3,30.03,ESE,103,1.0,2.0,61,0.00,,,0.01,Wunderground v.1.15,2013-05-04 23:20:00,
2013-05-04 18:25:00,67.0,53.5,30.03,ESE,115,1.0,2.0,62,0.00,,,0.01,Wunderground v.1.15,2013-05-04 23:25:00,
2013-05-04 18:30:00,66.8,53.8,30.02,NE,48,0.0,2.0,63,0.00,,,0.01,Wunderground v.1.15,2013-05-04 23:30:00,
2013-05-04 18:35:00,66.6,53.6,30.03,East,91,1.0,2.0,63,0.00,,,0.01,Wunderground v.1.15,2013-05-04 23:35:00,
2013-05-04 18:45:00,66.3,53.3,30.03,East,94,1.0,1.0,63,0.00,,,0.01,Wunderground v.1.15,2013-05-04 23:45:00,
2013-05-04 18:50:00,66.1,53.6,30.03,East,101,0.0,2.0,64,0.00,,,0.01,Wunderground v.1.15,2013-05-04 23:50:00,
2013-05-04 18:55:00,65.9,53.4,30.03,NE,50,1.0,2.0,64,0.00,,,0.01,Wunderground v.1.15,2013-05-04 23:55:00,
2013-05-04 19:00:00,65.7,53.6,30.04,SE,141,1.0,5.0,65,0.00,,,0.01,Wunderground v.1.15,2013-05-05 00:00:00,
2013-05-04 19:05:00,65.3,54.5,30.04,SE,142,1.0,5.0,68,0.00,,,0.01,Wunderground v.1.15,2013-05-05 00:05:00,
2013-05-04 19:15:00,64.1,56.0,30.05,SSE,150,4.0,5.0,75,0.00,,,0.01,Wunderground v.1.15,2013-05-05 00:15:00,
2013-05-04 19:20:00,63.1,56.1,30.05,SSE,160,5.0,5.0,78,0.00,,,0.01,Wunderground v.1.15,2013-05-05 00:20:00,
2013-05-04 19:25:00,62.6,56.3,30.05,SSE,148,4.0,6.0,80,0.00,,,0.01,Wunderground v.1.15,2013-05-05 00:25:00,
2013-05-04 19:30:00,62.2,56.3,30.05,SE,142,5.0,6.0,81,0.00,,,0.01,Wunderground v.1.15,2013-05-05 00:30:00,
2013-05-04 19:40:00,61.8,56.6,30.06,SSE,153,3.0,5.0,83,0.00,,,0.01,Wunderground v.1.15,2013-05-05 00:40:00,
2013-05-04 19:45:00,61.6,56.7,30.06,SSE,151,2.0,5.0,84,0.00,,,0.01,Wunderground v.1.15,2013-05-05 00:45:00,
2013-05-04 19:50:00,61.5,56.9,30.07,SSE,151,2.0,2.0,85,0.00,,,0.01,Wunderground v.1.15,2013-05-05 00:50:00,
2013-05-04 19:55:00,61.4,56.5,30.07,SSE,153,1.0,2.0,84,0.00,,,0.01,Wunderground v.1.15,2013-05-05 00:55:00,
2013-05-04 20:00:00,61.3,56.4,30.07,SSE,153,0.0,0.0,84,0.00,,,0.01,Wunderground v.1.15,2013-05-05 01:00:00,
2013-05-04 20:05:00,61.1,56.6,30.07,SSE,153,0.0,0.0,85,0.00,,,0.01,Wunderground v.1.15,2013-05-05 01:05:00,
2013-05-04 20:15:00,60.9,56.4,30.08,SSE,153,0.0,0.0,85,0.00,,,0.01,Wunderground v.1.15,2013-05-05 01:15:00,
2013-05-04 20:20:00,60.9,56.4,30.08,SSE,153,0.0,0.0,85,0.00,,,0.01,Wunderground v.1.15,2013-05-05 01:20:00,
2013-05-04 20:30:00,60.4,55.9,30.08,SSE,153,1.0,1.0,85,0.00,,,0.01,Wunderground v.1.15,2013-05-05 01:30:00,
2013-05-04 20:40:00,59.9,55.7,30.08,SSE,153,1.0,1.0,86,0.00,,,0.01,Wunderground v.1.15,2013-05-05 01:40:00,
2013-05-04 20:45:00,59.7,55.5,30.08,SSE,153,1.0,2.0,86,0.00,,,0.01,Wunderground v.1.15,2013-05-05 01:45:00,
2013-05-04 20:50:00,59.6,55.4,30.08,SSE,153,1.0,1.0,86,0.00,,,0.01,Wunderground v.1.15,2013-05-05 01:50:00,
2013-05-04 20:55:00,59.4,55.2,30.09,SSE,153,0.0,2.0,86,0.00,,,0.01,Wunderground v.1.15,2013-05-05 01:55:00,
2013-05-04 21:00:00,59.3,55.4,30.09,SSE,153,1.0,1.0,87,0.00,,,0.01,Wunderground v.1.15,2013-05-05 02:00:00,
2013-05-04 21:05:00,59.2,55.3,30.09,SSE,153,1.0,1.0,87,0.00,,,0.01,Wunderground v.1.15,2013-05-05 02:05:00,
2013-05-04 21:15:00,59.0,55.1,30.09,SSE,153,0.0,0.0,87,0.00,,,0.01,Wunderground v.1.15,2013-05-05 02:15:00,
2013-05-04 21:20:00,59.0,55.1,30.10,SSE,153,0.0,0.0,87,0.00,,,0.01,Wunderground v.1.15,2013-05-05 02:20:00,
2013-05-04 21:25:00,59.0,55.1,30.10,SSE,153,0.0,0.0,87,0.00,,,0.01,Wunderground v.1.15,2013-05-05 02:25:00,
2013-05-04 21:30:00,58.8,54.9,30.10,SSE,153,0.0,0.0,87,0.00,,,0.01,Wunderground v.1.15,2013-05-05 02:30:00,
2013-05-04 21:40:00,58.1,54.6,30.10,SSE,153,0.0,0.0,88,0.00,,,0.01,Wunderground v.1.15,2013-05-05 02:40:00,
2013-05-04 21:45:00,57.7,54.2,30.10,SSE,153,0.0,0.0,88,0.00,,,0.01,Wunderground v.1.15,2013-05-05 02:45:00,
2013-05-04 21:50:00,57.3,53.8,30.10,SSE,153,0.0,0.0,88,0.00,,,0.01,Wunderground v.1.15,2013-05-05 02:50:00,
2013-05-04 21:55:00,56.8,53.3,30.10,SSE,153,0.0,0.0,88,0.00,,,0.01,Wunderground v.1.15,2013-05-05 02:55:00,
2013-05-04 22:00:00,56.4,53.2,30.10,SSE,153,0.0,0.0,89,0.00,,,0.01,Wunderground v.1.15,2013-05-05 03:00:00,
2013-05-04 22:05:00,56.2,53.3,30.10,SSE,153,0.0,0.0,90,0.00,,,0.01,Wunderground v.1.15,2013-05-05 03:05:00,
2013-05-04 22:15:00,55.8,53.2,30.10,SSE,153,0.0,0.0,91,0.00,,,0.01,Wunderground v.1.15,2013-05-05 03:15:00,
2013-05-04 22:20:00,55.7,53.1,30.11,SSE,153,0.0,0.0,91,0.00,,,0.01,Wunderground v.1.15,2013-05-05 03:20:00,
2013-05-04 22:30:00,55.4,53.1,30.11,SSE,153,0.0,0.0,92,0.00,,,0.01,Wunderground v.1.15,2013-05-05 03:30:00,
2013-05-04 22:35:00,55.4,53.1,30.10,SSE,153,0.0,0.0,92,0.00,,,0.01,Wunderground v.1.15,2013-05-05 03:35:00,
2013-05-04 22:45:00,55.2,52.9,30.10,SSE,153,0.0,0.0,92,0.00,,,0.01,Wunderground v.1.15,2013-05-05 03:45:00,
2013-05-04 22:50:00,55.2,52.9,30.10,SSE,153,0.0,0.0,92,0.00,,,0.01,Wunderground v.1.15,2013-05-05 03:50:00,
2013-05-04 23:00:00,55.1,53.1,30.10,SSE,153,0.0,0.0,93,0.00,,,0.01,Wunderground v.1.15,2013-05-05 04:00:00,
2013-05-04 23:05:00,55.0,53.0,30.10,SSE,153,0.0,0.0,93,0.00,,,0.01,Wunderground v.1.15,2013-05-05 04:05:00,
2013-05-04 23:10:00,55.0,53.0,30.10,SSE,153,0.0,0.0,93,0.00,,,0.01,Wunderground v.1.15,2013-05-05 04:10:00,
2013-05-04 23:15:00,55.0,53.0,30.10,SSE,153,0.0,0.0,93,0.00,,,0.01,Wunderground v.1.15,2013-05-05 04:15:00,
2013-05-04 23:20:00,55.1,53.1,30.10,SSE,153,0.0,0.0,93,0.00,,,0.01,Wunderground v.1.15,2013-05-05 04:20:00,
2013-05-04 23:25:00,55.0,53.0,30.10,SSE,153,0.0,0.0,93,0.00,,,0.01,Wunderground v.1.15,2013-05-05 04:25:00,
2013-05-04 23:30:00,55.0,53.0,30.10,SSE,153,0.0,0.0,93,0.00,,,0.01,Wunderground v.1.15,2013-05-05 04:30:00,
2013-05-04 23:35:00,55.0,53.0,30.11,SSE,153,0.0,0.0,93,0.00,,,0.01,Wunderground v.1.15,2013-05-05 04:35:00,
2013-05-04 23:40:00,54.9,52.9,30.11,SSE,153,0.0,0.0,93,0.00,,,0.01,Wunderground v.1.15,2013-05-05 04:40:00,
2013-05-04 23:50:00,54.8,53.1,30.11,SSE,153,0.0,0.0,94,0.00,,,0.01,Wunderground v.1.15,2013-05-05 04:50:00,
2013-05-04 23:55:00,54.8,53.1,30.11,SSE,153,0.0,0.0,94,0.00,,,0.01,Wunderground v.1.15,2013-05-05 04:55:00,